Location: Newark
(45.5000°N, 11.4167°E)
Time: 09:42:38
(UTC+00:00)

Tiros 1 - All Passes

Search period start: 22 August 2019 00:00
Search period end: 01 September 2019 00:00
Orbit: 630 x 664 km, 48.4° (Epoch: 21 August)

Date Brightness Start Highest point End Pass type
(mag) Time Alt. Az. Time Alt. Az. Time Alt. Az.
22 Aug - 01:00:44 10° W 01:05:23 74° NNW 01:10:05 10° ENE visible
22 Aug - 02:43:16 10° WNW 02:47:54 62° N 02:52:34 10° E visible
22 Aug - 04:25:33 10° WNW 04:30:14 69° SSW 04:34:56 10° ESE daylight
22 Aug - 06:08:32 10° W 06:11:52 19° SW 06:15:14 10° S daylight
22 Aug - 22:04:13 10° S 22:07:36 20° SE 22:11:01 10° E night (unlit)
22 Aug - 23:44:39 10° WSW 23:49:15 73° SSE 23:53:55 10° ENE visible
23 Aug - 01:27:00 10° W 01:31:37 61° N 01:36:16 10° ENE visible
23 Aug - 03:09:26 10° WNW 03:14:07 77° NNE 03:18:50 10° ESE visible
23 Aug - 04:51:47 10° WNW 04:56:09 39° SW 05:00:34 10° SE daylight
23 Aug - 22:29:04 10° SW 22:33:21 39° SE 22:37:40 10° ENE night (unlit)
24 Aug - 00:10:44 10° WSW 00:15:22 76° NNW 00:20:04 10° ENE visible
24 Aug - 01:53:16 10° WNW 01:57:53 61° N 02:02:32 10° E visible
24 Aug - 03:35:34 10° WNW 03:40:13 73° SSW 03:44:56 10° ESE visible
24 Aug - 05:18:26 10° W 05:21:55 21° SW 05:25:24 10° S daylight
24 Aug - 21:14:26 10° S 21:17:40 19° SE 21:20:54 10° E night (unlit)
24 Aug - 22:54:41 10° WSW 22:59:16 70° SSE 23:03:54 10° ENE visible
25 Aug - 00:36:59 10° W 00:41:36 62° N 00:46:15 10° ENE visible
25 Aug - 02:19:27 10° WNW 02:24:07 75° NNE 02:28:49 10° E visible
25 Aug - 04:01:46 10° WNW 04:06:10 42° SSW 04:10:37 10° SE daylight
25 Aug - 21:39:09 10° SSW 21:43:23 36° SE 21:47:38 10° ENE night (unlit)
25 Aug - 23:20:44 10° WSW 23:25:22 79° NNW 23:30:03 10° ENE visible
26 Aug - 01:03:15 10° WNW 01:07:51 61° N 01:12:30 10° E visible
26 Aug - 02:45:34 10° WNW 02:50:14 76° SSW 02:54:56 10° ESE visible
26 Aug - 04:28:21 10° W 04:31:57 22° SW 04:35:34 10° S daylight
26 Aug - 20:24:40 10° S 20:27:43 18° SE 20:30:46 10° E night (unlit)
26 Aug - 22:04:43 10° SW 22:09:17 66° SSE 22:13:54 10° ENE night (unlit)
26 Aug - 23:46:59 10° W 23:51:35 62° N 23:56:13 10° ENE visible
27 Aug - 01:29:27 10° WNW 01:34:06 72° NNE 01:38:47 10° E visible
27 Aug - 03:11:46 10° WNW 03:16:12 44° SSW 03:20:40 10° SE visible
27 Aug - 04:57:01 10° SW 04:57:32 10° SW 04:58:02 10° SW daylight
27 Aug - 20:49:15 10° SSW 20:53:25 34° SE 20:57:36 10° E night (unlit)
27 Aug - 22:30:44 10° WSW 22:35:21 81° NNW 22:40:02 10° ENE night (unlit)
28 Aug - 00:13:15 10° WNW 00:17:51 60° N 00:22:29 10° E visible
28 Aug - 01:55:34 10° WNW 02:00:14 80° SSW 02:04:56 10° ESE visible
28 Aug - 03:38:16 10° W 03:41:59 24° SW 03:45:43 10° SSE visible
28 Aug - 19:34:55 10° S 19:37:46 16° SE 19:40:37 10° E visible
28 Aug - 21:14:45 10° SW 21:19:18 62° SSE 21:23:53 10° ENE night (unlit)
28 Aug - 22:56:58 10° W 23:01:34 63° N 23:06:12 10° ENE night (unlit)
29 Aug - 00:39:27 10° WNW 00:44:05 70° NNE 00:48:45 10° E visible
29 Aug - 02:21:45 10° WNW 02:26:13 47° SSW 02:30:43 10° SE visible
29 Aug - 04:06:13 10° WSW 04:07:35 11° SW 04:08:57 10° SSW daylight
29 Aug - 19:59:21 10° SSW 20:03:27 32° SE 20:07:33 10° E visible
29 Aug - 21:40:44 10° WSW 21:45:22 84° NNW 21:50:02 10° ENE visible
29 Aug - 23:23:15 10° WNW 23:27:50 60° N 23:32:27 10° E night (unlit)
30 Aug - 01:05:35 10° WNW 01:10:14 84° SSW 01:14:55 10° ESE visible
30 Aug - 02:48:13 10° W 02:52:01 25° SW 02:55:51 10° SSE visible
30 Aug - 18:45:13 10° S 18:47:49 15° SE 18:50:26 10° E visible
30 Aug - 20:24:47 10° SW 20:29:19 59° SSE 20:33:52 10° ENE visible
30 Aug - 22:06:57 10° W 22:11:33 65° N 22:16:11 10° ENE visible
30 Aug - 23:49:27 10° WNW 23:54:05 69° NNE 23:58:43 10° E night (unlit)
31 Aug - 01:31:45 10° WNW 01:36:14 50° SSW 01:40:45 10° SE visible
31 Aug - 03:15:49 10° WSW 03:17:38 12° SW 03:19:28 10° SSW visible
31 Aug - 19:09:28 10° SSW 19:13:29 30° SE 19:17:31 10° E visible
31 Aug - 20:50:44 10° WSW 20:55:22 87° NNW 21:00:01 10° ENE visible
31 Aug - 22:33:14 10° W 22:37:49 59° N 22:42:25 10° E visible
